Meteopurmerend
purmerend
Purmerend - Baaienwijk



My webcam  My webcam


Onweer radar Meer informatie blitzortung!


Regen radar Meer informatie rain snow radar


Bezoek onze andere website:

CandyAppleRed WebdesignWebdesign Purmerend Candy Apple Red

MeteopurmerendBlog

Template documentation
and downloads



Het weer levert geen direct gevaar op.    Er zijn geen waarschuwingen afgegeven.

15 daagse weersverwachting Greve (DK)

  • Overzicht
  • Per uur
  • 15 dagen
  • Extra
  • Vergelijk
  • Kaarten
  • Dagkaart
  • Meer »
  • Info
  • Statistieken
  • Directe link
    Temp 6h Neerslag Wind  
 04:44     21:34    Daglengte: 16:50 Vandaag
08:00
13°
 
9
14:00
15°
 
9
20:00
14°
 
8
 04:42     21:35    Daglengte: 16:53 Morgen
02:00
11°
 
5
08:00
11°
0.5 mm
10
14:00
13°
2.3 mm
10
20:00
12°
 
9
 04:41     21:37    Daglengte: 16:56 Zaterdag 28 Mei
02:00
2.3 mm
9
08:00
11°
7.3 mm
9
14:00
15°
4.7 mm
8
20:00
15°
 
5
 04:40     21:38    Daglengte: 16:58 Zondag 29 Mei
02:00
12°
 
4
Locatie info
Region: Sjælland
Latitude: 55.5849°N
Longitude: 12.2934°E
3 masl
Postcode: 2670
Temp/Neerslag /Baro Onweer/Dauwpunt
    Temp Baro 1h Neerslag Dauwpunt Wind UV Bewolking  
 04:44     21:34    Daglengte: 16:50 Vandaag
08:00
13°
1007.4 hPa
76%
8.0°
9
Windvlaag: 6.3 m/s
23%
09:00
13°
1007.8 hPa
82%
6.8°
9
Windvlaag: 3.1 m/s
13%
10:00
14°
1008.4 hPa
80%
7.2°
10
Windvlaag: 1.8 m/s
34%
11:00
14°
1009.2 hPa
56%
6.3°
10
Windvlaag: 1.5 m/s
32%
12:00
15°
1009.8 hPa
55%
5.3°
10
Windvlaag: 1.9 m/s
15%
13:00
15°
1010.1 hPa
58%
5.5°
10
Windvlaag: 1.7 m/s
29%
14:00
15°
1010.3 hPa
62%
5.8°
9
Windvlaag: 1.9 m/s
27%
15:00
15°
1010.7 hPa
62%
5.2°
10
Windvlaag: 2.4 m/s
18%
16:00
15°
1010.9 hPa
26%
4.4°
9
Windvlaag: 2.5 m/s
16%
17:00
15°
1011.0 hPa
61%
4.5°
9
Windvlaag: 1.9 m/s
12%
18:00
14°
1011.1 hPa
58%
4.5°
9
Windvlaag: 2.4 m/s
16%
19:00
14°
1011.1 hPa
21%
4.3°
9
Windvlaag: 1.4 m/s
6%
20:00
14°
1011.2 hPa
14%
3.7°
8
Windvlaag: 1.5 m/s
3%
21:00
13°
1011.2 hPa
14%
3.9°
8
Windvlaag: 1.7 m/s
32%
22:00
12°
1011.2 hPa
14%
3.4°
7
Windvlaag: 1.6 m/s
15%
23:00
12°
1011.0 hPa
18%
3.6°
6
Windvlaag: 2 m/s
18%
 04:42     21:35    Daglengte: 16:53 Morgen
00:00
11°
1010.6 hPa
56%
3.3°
6
Windvlaag: 3.5 m/s
32%
01:00
11°
1010.0 hPa
14%
4.7°
5
Windvlaag: 4.3 m/s
42%
02:00
11°
1009.2 hPa
14%
5.9°
5
Windvlaag: 5.7 m/s
41%
03:00
11°
1008.4 hPa
71%
6.7°
6
Windvlaag: 5.7 m/s
39%
04:00
11°
1007.5 hPa
82%
8.1°
6
Windvlaag: 5.7 m/s
31%
05:00
11°
1007.0 hPa 0.5 mm
78%
8.5°
7
Windvlaag: 5 m/s
20%
06:00
11°
1007.0 hPa
67%
7.8°
8
Windvlaag: 4 m/s
1%
07:00
11°
1007.2 hPa
14%
6.9°
9
Windvlaag: 2.2 m/s
1%
08:00
11°
1007.4 hPa
15%
5.8°
10
Windvlaag: 0.6 m/s
4%
09:00
12°
1007.3 hPa
64%
5.1°
10
Windvlaag: -0.6 m/s
8%
10:00
13°
1007.2 hPa
73%
4.1°
9
Windvlaag: -1 m/s
24%
11:00
14°
1007.3 hPa
82%
4.3°
9
Windvlaag: 1.7 m/s
59%
12:00
13°
1007.2 hPa 0.9 mm
82%
4.1°
10
Windvlaag: 2.1 m/s
72%
13:00
13°
1007.1 hPa 0.7 mm
82%
4.7°
10
Windvlaag: 1.8 m/s
37%
14:00
13°
1006.9 hPa 0.7 mm
82%
5.2°
10
Windvlaag: 0.9 m/s
20%
15:00
13°
1006.7 hPa
79%
5.4°
10
Windvlaag: 2.2 m/s
33%
16:00
13°
1006.6 hPa
80%
5.5°
9
Windvlaag: 1 m/s
45%
17:00
12°
1006.6 hPa
82%
5.7°
9
Windvlaag: 0.8 m/s
30%
18:00
12°
1006.4 hPa
82%
6.7°
9
Windvlaag: 1.9 m/s
22%
19:00
12°
1006.1 hPa
78%
5.8°
10
Windvlaag: 0.4 m/s
28%
20:00
12°
1005.9 hPa
78%
3.7°
9
Windvlaag: 1.1 m/s
20%
21:00
11°
1005.5 hPa
76%
3.3°
9
Windvlaag: 1.5 m/s
9%
22:00
11°
1005.3 hPa
61%
3.4°
8
Windvlaag: 2.7 m/s
70%
23:00
10°
Voelt als: 6.5°
1004.4 hPa
26%
6.1°
8
Windvlaag: 3.6 m/s
73%
 04:41     21:37    Daglengte: 16:56 Zaterdag 28 Mei
00:00
10°
Voelt als: 6.0°
1004.1 hPa 1.2 mm
21%
6.1°
8
Windvlaag: 2.6 m/s
83%
01:00
Voelt als: 5.6°
1003.7 hPa 1.2 mm
21%
6.0°
9
Windvlaag: 3.5 m/s
64%
02:00
Voelt als: 5.7°
1003.4 hPa
21%
6.5°
9
Windvlaag: 1.6 m/s
68%
03:00
Voelt als: 5.9°
1003.1 hPa
25%
4.9°
8
Windvlaag: 1.5 m/s
46%
04:00
10°
Voelt als: 6.2°
1003.0 hPa
35%
5.3°
8
Windvlaag: 1.5 m/s
88%
05:00
Voelt als: 5.9°
1002.9 hPa 1.6 mm
87%
5.6°
7
Windvlaag: 1.1 m/s
67%
06:00
Voelt als: 5.9°
1003.2 hPa 2.0 mm
84%
6.6°
8
Windvlaag: -1.3 m/s
72%
07:00
10°
1003.5 hPa 1.9 mm
21%
6.6°
8
Windvlaag: -1.1 m/s
82%
08:00
11°
1003.8 hPa 1.9 mm
21%
6.4°
9
Windvlaag: -1.3 m/s
79%
09:00
11°
1004.1 hPa 1.3 mm
21%
5.8°
8
Windvlaag: -2.5 m/s
86%
10:00
12°
1004.7 hPa 1.8 mm
21%
4.9°
8
Windvlaag: -3 m/s
89%
11:00
13°
1005.2 hPa 1.6 mm
22%
4.8°
8
Windvlaag: -5.6 m/s
84%
12:00
13°
1005.8 hPa
31%
5.1°
8
Windvlaag: -5.9 m/s
74%
13:00
14°
1006.0 hPa
75%
4.8°
8
Windvlaag: -5.9 m/s
55%
14:00
15°
1006.3 hPa
74%
4.8°
8
Windvlaag: -6.3 m/s
56%
15:00
15°
1006.5 hPa
25%
5.2°
8
Windvlaag: -6.4 m/s
59%
16:00
15°
1006.6 hPa
23%
4.5°
7
Windvlaag: -6.4 m/s
61%
17:00
15°
1006.7 hPa
24%
4.3°
7
Windvlaag: -5.8 m/s
58%
18:00
15°
1007.0 hPa
22%
3.8°
7
Windvlaag: -5.8 m/s
57%
19:00
15°
1007.1 hPa
21%
4.4°
6
Windvlaag: -5.7 m/s
30%
20:00
15°
1007.3 hPa
21%
6.2°
5
Windvlaag: -4.9 m/s
17%
21:00
14°
1007.3 hPa
21%
6.8°
5
Windvlaag: -3.4 m/s
21%
22:00
13°
1007.5 hPa
21%
7.7°
4
Windvlaag: -2.5 m/s
50%
23:00
12°
1007.6 hPa
21%
7.8°
4
Windvlaag: -1.7 m/s
20%
 04:40     21:38    Daglengte: 16:58 Zondag 29 Mei
00:00
12°
1007.5 hPa
21%
8.6°
4
Windvlaag: 11.5 m/s
66%
01:00
12°
1007.4 hPa
26%
8.8°
4
Windvlaag: 11.3 m/s
59%
02:00
12°
1007.2 hPa
28%
9.3°
4
Windvlaag: 10.3 m/s
72%
03:00
12°
1006.9 hPa
79%
9.6°
4
Windvlaag: 11.1 m/s
67%
04:00
12°
1006.8 hPa
81%
9.5°
4
Windvlaag: 10.5 m/s
73%
05:00
11°
1006.6 hPa
82%
9.3°
4
Windvlaag: 9.9 m/s
74%
06:00
12°
1006.6 hPa
39%
9.1°
4
Windvlaag: 6.1 m/s
58%
07:00
12°
1006.5 hPa
31%
9.1°
3
Windvlaag: 9 m/s
63%
Temp/Neerslag /Baro Onweer/Dauwpunt
    Temp Baro Neerslag Dauwpunt Wind Bewolking  
 04:44     21:34    Daglengte: 16:50 Vandaag
08:00
13°
1007.4 hPa   8.0°
9
23%
11:00
14°
1009.2 hPa   6.3°
10
32%
14:00
15°
1010.3 hPa   5.8°
9
27%
17:00
15°
1011.0 hPa   4.5°
9
12%
20:00
14°
1011.2 hPa   3.7°
8
3%
23:00
12°
1011.0 hPa   3.6°
6
18%
 04:42     21:35    Daglengte: 16:53 Morgen
02:00
11°
1009.2 hPa   5.9°
5
41%
05:00
11°
1007.0 hPa 0.5 mm 8.5°
7
20%
08:00
11°
1007.4 hPa   5.8°
10
4%
11:00
14°
1007.3 hPa   4.3°
9
59%
14:00
13°
1006.9 hPa 2.3 mm 5.2°
10
20%
17:00
12°
1006.6 hPa   5.7°
9
30%
20:00
12°
1005.9 hPa   3.7°
9
20%
23:00
10°
Voelt als: 6.5°
1004.4 hPa   6.1°
8
73%
 04:41     21:37    Daglengte: 16:56 Zaterdag 28 Mei
02:00
Voelt als: 5.7°
1003.4 hPa 2.3 mm 6.5°
9
68%
05:00
Voelt als: 5.9°
1002.9 hPa 1.6 mm 5.6°
7
67%
08:00
11°
1003.8 hPa 5.8 mm 6.4°
9
79%
11:00
13°
1005.2 hPa 4.7 mm 4.8°
8
84%
14:00
15°
1006.3 hPa   4.8°
8
56%
17:00
15°
1006.7 hPa   4.3°
7
58%
20:00
15°
1007.3 hPa   6.2°
5
17%
23:00
12°
1007.6 hPa   7.8°
4
20%
 04:40     21:38    Daglengte: 16:58 Zondag 29 Mei
02:00
12°
1007.2 hPa   9.3°
4
72%
05:00
11°
1006.6 hPa   9.3°
4
74%
08:00
13°
1006.7 hPa   8.5°
3
72%
11:00
11°
1008.3 hPa 8.0 mm 5.7°
4
1%
14:00
12°
1008.0 hPa 8.0 mm 5.8°
4
1%
17:00
12°
1007.9 hPa 8.1 mm 6.8°
4
1%
20:00
11°
1007.7 hPa 8.1 mm 7.1°
4
1%
23:00
10°
1008.2 hPa 8.2 mm 6.3°
3
1%
 04:39     21:39    Daglengte: 17:00 Maandag 30 Mei
02:00
10°
1008.1 hPa 8.2 mm 5.4°
3
1%
05:00
10°
1008.3 hPa 8.2 mm 4.2°
3
1%
08:00
11°
1009.4 hPa 8.3 mm 6.6°
4
1%
11:00
13°
1010.0 hPa 8.4 mm 6.0°
5
0%
14:00
13°
1010.8 hPa 9.0 mm 7.6°
5
1%
17:00
13°
1011.2 hPa 10.0 mm 7.8°
3
1%
20:00
12°
1011.6 hPa 10.8 mm 8.3°
3
1%
23:00
Voelt als: 7.7°
1012.6 hPa 11.0 mm 6.2°
3
0%
 04:38     21:41    Daglengte: 17:03 Dinsdag 31 Mei
02:00
Voelt als: 6.6°
1012.9 hPa 11.0 mm 5.7°
3
1%
05:00
Voelt als: 7.2°
1013.0 hPa 11.0 mm 5.9°
2
1%
08:00
11°
1013.6 hPa 11.0 mm 7.8°
1
1%
11:00
14°
1013.6 hPa 11.4 mm 7.5°
2
1%
14:00
15°
1013.2 hPa 11.8 mm 7.2°
2
1%
17:00
15°
1013.1 hPa 12.5 mm 7.1°
0
0%
20:00
14°
1013.0 hPa 12.9 mm 9.9°
1
0%
23:00
10°
1013.8 hPa 13.2 mm 7.4°
1
0%
 04:37     21:42    Daglengte: 17:05 Woensdag 01 Jun
02:00
1013.5 hPa 13.2 mm 6.2°
1
0%
05:00
Voelt als: 8.9°
1014.0 hPa 13.2 mm 5.9°
1
0%
08:00
12°
1015.5 hPa 13.2 mm 8.2°
1
0%
11:00
15°
1015.5 hPa 13.3 mm 8.4°
0
0%
14:00
16°
1016.4 hPa 13.7 mm 8.3°
1
0%
17:00
16°
1017.2 hPa 14.5 mm 10.5°
2
1%
20:00
15°
1017.2 hPa 14.7 mm 10.3°
2
0%
23:00
11°
1017.7 hPa 14.7 mm 7.0°
1
0%
 04:36     21:43    Daglengte: 17:07 Donderdag 02 Jun
02:00
11°
1018.0 hPa 14.7 mm 7.9°
2
0%
05:00
11°
1017.4 hPa   7.4°
1
0%
08:00
14°
1018.2 hPa 29.3 mm 9.6°
3
0%
14:00
16°
1018.0 hPa 29.3 mm 9.6°
4
1%
20:00
15°
1016.4 hPa 29.3 mm 11.0°
3
1%
 04:35     21:45    Daglengte: 17:10 Vrijdag 03 Jun
02:00
14°
1016.1 hPa 29.3 mm 8.3°
4
1%
08:00
15°
1016.1 hPa 29.5 mm 10.2°
4
1%
14:00
18°
1017.2 hPa 29.7 mm 14.6°
5
0%
20:00
16°
1017.3 hPa 29.7 mm 13.8°
3
1%
 04:34     21:46    Daglengte: 17:12 Zaterdag 04 Jun
02:00
14°
1019.1 hPa 29.7 mm 12.2°
3
1%
08:00
15°
1020.0 hPa 29.7 mm 10.3°
7
1%
14:00
15°
1021.9 hPa 30.0 mm 11.2°
8
1%
20:00
15°
1022.7 hPa 30.0 mm 11.7°
6
1%
 04:33     21:47    Daglengte: 17:14 Zondag 05 Jun
02:00
11°
1015.8 hPa 0.3 mm 8.8°
1
34%
08:00
13°
1015.0 hPa 0.3 mm 9.8°
0
49%
14:00
15°
1014.8 hPa 0.9 mm 10.6°
1
65%
20:00
14°
1014.1 hPa 0.6 mm 10.6°
1
62%
 04:33     21:48    Daglengte: 17:15 Maandag 06 Jun
02:00
11°
1014.3 hPa 0.4 mm 9.1°
1
47%
08:00
13°
1014.2 hPa 0.2 mm 9.9°
0
48%
14:00
16°
1014.4 hPa 0.5 mm 10.7°
1
46%
20:00
15°
1013.6 hPa 0.6 mm 11.1°
1
47%
 04:32     21:49    Daglengte: 17:17 Dinsdag 07 Jun
02:00
12°
1013.3 hPa 0.8 mm 9.3°
1
48%
08:00
13°
1012.8 hPa 0.6 mm 10.0°
1
61%
14:00
16°
1012.5 hPa 0.5 mm 11.2°
2
59%
20:00
15°
1011.9 hPa 0.6 mm 11.4°
2
61%
 04:31     21:50    Daglengte: 17:19 Woensdag 08 Jun
02:00
12°
1011.8 hPa 0.3 mm 9.2°
1
55%
08:00
13°
1011.7 hPa 0.5 mm 10.3°
2
50%
14:00
17°
1011.9 hPa 0.6 mm 11.3°
2
45%
20:00
15°
1011.5 hPa 0.8 mm 11.6°
2
43%
 04:31     21:51    Daglengte: 17:20 Donderdag 09 Jun
02:00
12°
1011.7 hPa 0.6 mm 9.6°
1
51%
08:00
14°
1011.5 hPa 0.4 mm 10.6°
1
53%
14:00
16°
1011.9 hPa 0.7 mm 11.5°
2
61%
20:00
16°
1011.7 hPa 0.6 mm 11.8°
2
67%
 04:30     21:52    Daglengte: 17:22 Vrijdag 10 Jun
02:00
13°
1012.3 hPa 0.6 mm 10.0°
2
52%
  CAPE Lifted Index Hail Supercell Tornado SRH 3km CL BTM PRES CL TOP PRES Swiss DWD icon SMHI TS
 04:44     21:34    Daglengte: 16:50 Vandaag
08:00 189 J/kg 5.2 K 0 % 0 % 0 % 0 m²/s² 0 0 11.71 3
09:00 209 J/kg 5.4 K 0 % 0 % 0 % 0 m²/s² 0 0 11.49 80
10:00 150 J/kg 6.6 K 0 % 0 % 0 % 0 m²/s² 0 0 13.08 3
11:00 92 J/kg 7.7 K 0 % 0 % 0 % 0 m²/s² 0 0 15.14 2
12:00 77 J/kg 8.5 K 0 % 0 % 0 % 0 m²/s² 0 0 16.9 2
13:00 77 J/kg 9.1 K 0 % 0 % 0 % 0 m²/s² 0 0 17.92 2
14:00 82 J/kg 8.8 K 0 % 0 % 0 % 0 m²/s² 0 0 16.57 80
15:00 43 J/kg 9.2 K 0 % 0 % 0 % 0 m²/s² 0 0 12.98 80
16:00 118 J/kg 8.4 K 0 % 0 % 0 % 0 m²/s² 0 0 17.64 80
17:00 59 J/kg 9.3 K 0 % 0 % 0 % 0 m²/s² 0 0 19.53 2
18:00 35 J/kg 9.6 K 0 % 0 % 0 % 0 m²/s² 0 0 20.43 3
19:00 22 J/kg 9.8 K 0 % 0 % 0 % 0 m²/s² 0 0 20.09 2
20:00 6 J/kg 10.2 K 0 % 0 % 0 % 0 m²/s² 0 0 16.8 1
21:00 0 J/kg 9.7 K 0 % 0 % 0 % 0 m²/s² 0 0 12.19 3
22:00 1 J/kg 9.5 K 0 % 0 % 0 % 0 m²/s² 0 0 11.33 3
23:00 1 J/kg 8.5 K 0 % 0 % 0 % 0 m²/s² 0 0 9.73 3
 04:42     21:35    Daglengte: 16:53 Morgen
00:00 0 J/kg 7.7 K 0 % 0 % 0 % 0 m²/s² 0 0 10.1 2
01:00 2 J/kg 5.9 K 0 % 0 % 0 % 0 m²/s² 0 0 9.41 2
02:00 2 J/kg 4.7 K 0 % 0 % 0 % 0 m²/s² 0 0 10.94 3
03:00 91 J/kg 2.8 K 0 % 0 % 0 % 0 m²/s² 0 0 6.73 80
04:00 322 J/kg 1.1 K 0 % 0 % 0 % 0 m²/s² 0 0 4.34 80
05:00 338 J/kg 0.8 K 0 % 0 % 0 % 0 m²/s² 0 0 4.04 80
06:00 19 J/kg 4.5 K 0 % 0 % 0 % 0 m²/s² 0 0 9 2
07:00 1 J/kg 5.1 K 0 % 0 % 0 % 0 m²/s² 0 0 10.83 2
08:00 69 J/kg 3.6 K 0 % 0 % 0 % 0 m²/s² 0 0 8.55 3
09:00 122 J/kg 1.8 K 0 % 0 % 0 % 0 m²/s² 0 0 6.03 3
10:00 167 J/kg 0.3 K 0 % 0 % 0 % 0 m²/s² 0 0 4.23 80
11:00 231 J/kg -0.9 K 0 % 0 % 0 % 0 m²/s² 0 0 2.55 80
12:00 241 J/kg -0.8 K 0 % 0 % 0 % 0 m²/s² 0 0 1.57 80
13:00 53 J/kg 0.5 K 0 % 0 % 0 % 0 m²/s² 0 0 1.7 2
14:00 300 J/kg -0.9 K 0 % 0 % 0 % 0 m²/s² 0 0 2.73 2
15:00 222 J/kg -0.6 K 0 % 0 % 0 % 0 m²/s² 0 0 2.49 2
16:00 365 J/kg -1.5 K 0 % 0 % 0 % 0 m²/s² 0 0 0.78 3
17:00 299 J/kg -1.3 K 0 % 0 % 0 % 0 m²/s² 0 0 -0.19 3
18:00 145 J/kg -0.6 K 0 % 0 % 0 % 0 m²/s² 0 0 1.26 80
19:00 482 J/kg -2.6 K 0 % 0 % 0 % 0 m²/s² 0 0 -0.86 80
20:00 308 J/kg -1.3 K 0 % 0 % 0 % 0 m²/s² 0 0 -0.01 80
21:00 240 J/kg -0.7 K 0 % 0 % 0 % 0 m²/s² 0 0 1.13 80
22:00 145 J/kg -0.3 K 0 % 0 % 0 % 0 m²/s² 0 0 1.86 3
23:00 97 J/kg -0.4 K 0 % 0 % 0 % 0 m²/s² 0 0 2.57 3
 04:41     21:37    Daglengte: 16:56 Zaterdag 28 Mei
00:00 11 J/kg -0.4 K 0 % 0 % 0 % 0 m²/s² 0 0 2.48 3
01:00 0 J/kg -0.4 K 0 % 0 % 0 % 0 m²/s² 0 0 2.66 3
02:00 14 J/kg -0.1 K 0 % 0 % 0 % 0 m²/s² 0 0 0.26 3
03:00 0 J/kg 1.4 K 0 % 0 % 0 % 0 m²/s² 0 0 1.88 3
04:00 0 J/kg 1.3 K 0 % 0 % 0 % 0 m²/s² 0 0 2.02 3
05:00 0 J/kg 3.1 K 0 % 0 % 0 % 0 m²/s² 0 0 4.21 3
06:00 0 J/kg 3.0 K 0 % 0 % 0 % 0 m²/s² 0 0 4.2 3
07:00 0 J/kg 3.7 K 0 % 0 % 0 % 0 m²/s² 0 0 4.81 3
08:00 0 J/kg 3.9 K 0 % 0 % 0 % 0 m²/s² 0 0 4.89 3
09:00 6 J/kg 3.7 K 0 % 0 % 0 % 0 m²/s² 0 0 4.27 3
10:00 0 J/kg 4.2 K 0 % 0 % 0 % 0 m²/s² 0 0 5.43 3
11:00 0 J/kg 4.1 K 0 % 0 % 0 % 0 m²/s² 0 0 5.63 3
12:00 1 J/kg 3.9 K 0 % 0 % 0 % 0 m²/s² 0 0 5.13 3
13:00 1 J/kg 3.9 K 0 % 0 % 0 % 0 m²/s² 0 0 4.98 3
14:00 1 J/kg 3.5 K 0 % 0 % 0 % 0 m²/s² 0 0 4.58 3
15:00 0 J/kg 3.5 K 0 % 0 % 0 % 0 m²/s² 0 0 4.79 3
16:00 0 J/kg 3.7 K 0 % 0 % 0 % 0 m²/s² 0 0 5.26 3
17:00 0 J/kg 3.6 K 0 % 0 % 0 % 0 m²/s² 0 0 4.77 3
18:00 0 J/kg 3.8 K 0 % 0 % 0 % 0 m²/s² 0 0 5.42 3
19:00 0 J/kg 3.1 K 0 % 0 % 0 % 0 m²/s² 0 0 4.93 3
20:00 7 J/kg 1.7 K 0 % 0 % 0 % 0 m²/s² 0 0 3.14 0
21:00 0 J/kg 1.7 K 0 % 0 % 0 % 0 m²/s² 0 0 2.99 0
22:00 0 J/kg 2.0 K 0 % 0 % 0 % 0 m²/s² 0 0 3.35 2
23:00 0 J/kg 2.5 K 0 % 0 % 0 % 0 m²/s² 0 0 3.94 2
 04:40     21:38    Daglengte: 16:58 Zondag 29 Mei
00:00 0 J/kg 2.2 K 0 % 0 % 0 % 0 m²/s² 0 0 3.64 3
01:00 0 J/kg 2.2 K 0 % 0 % 0 % 0 m²/s² 0 0 3.73 3
02:00 0 J/kg 2.2 K 0 % 0 % 0 % 0 m²/s² 0 0 3.91 3
03:00 0 J/kg 2.0 K 0 % 0 % 0 % 0 m²/s² 0 0 4.01 3
04:00 0 J/kg 1.9 K 0 % 0 % 0 % 0 m²/s² 0 0 4.09 3
05:00 0 J/kg 1.8 K 0 % 0 % 0 % 0 m²/s² 0 0 4.29 3
06:00 0 J/kg 1.3 K 0 % 0 % 0 % 0 m²/s² 0 0 3.91 3
07:00 0 J/kg 0.6 K 0 % 0 % 0 % 0 m²/s² 0 0 3.45 3
Temp Baro Wind Neerslag
  EWN Forecast EWN WRFDA DWD ICON FMI HIRLAM MET Norway GFS
 04:44     21:34    Daglengte: 16:50 Vandaag
08:00 13.1° 1007.4 hPa 9.1 m/s 0.0 mm 12.9° 1005.7 hPa 8.5 m/s 2.0 mm 13.0° 1007.7 hPa 9.2 m/s -0.6 mm 13.8° 1006.3 hPa 9.5 m/s 0.0 mm 12.4° 1007.3 hPa 8.7 m/s
11:00 14.3° 1009.2 hPa 9.7 m/s 0.0 mm 14.5° 1008.0 hPa 9.5 m/s 3.1 mm 13.8° 1009.7 hPa 9.3 m/s 0.3 mm 15.0° 1007.5 hPa 11.3 m/s 0.0 mm 14.0° 1009.5 hPa 10.3 m/s
14:00 15.3° 1010.3 hPa 9.4 m/s 0.0 mm 15.1° 1009.5 hPa 9.2 m/s 3.1 mm 15.1° 1010.8 hPa 9.1 m/s 0.1 mm 15.7° 1009.2 hPa 11.5 m/s 0.0 mm 14.8° 1010.7 hPa 10.7 m/s
17:00 14.9° 1011.0 hPa 9.3 m/s 0.0 mm 15.0° 1009.9 hPa 9.7 m/s 3.9 mm 14.7° 1011.4 hPa 9.1 m/s 0.0 mm 14.9° 1011.0 hPa 10.5 m/s 0.0 mm 14.2° 1010.7 hPa 9.9 m/s
20:00 13.5° 1011.2 hPa 8.5 m/s 0.0 mm 13.4° 1009.7 hPa 8.7 m/s 4.2 mm 13.2° 1011.3 hPa 7.8 m/s 0.0 mm 13.5° 1011.9 hPa 9.9 m/s 0.0 mm 12.2° 1011.0 hPa 8.5 m/s
23:00 11.8° 1011.0 hPa 6.4 m/s 0.0 mm 11.0° 1009.7 hPa 5.9 m/s 4.2 mm 11.6° 1010.5 hPa 5.3 m/s 0.0 mm 12.7° 1012.6 hPa 8.5 m/s 0.0 mm 10.2° 1010.7 hPa 7.3 m/s
 04:42     21:35    Daglengte: 16:53 Morgen
02:00 10.9° 1009.2 hPa 5.2 m/s 0.0 mm 10.7° 1007.0 hPa 6.1 m/s 4.2 mm 10.5° 1008.5 hPa 4.7 m/s 0.0 mm 11.0° 1011.3 hPa 5.0 m/s 0.0 mm 9.9° 1008.7 hPa 6.0 m/s
05:00 10.8° 1007.0 hPa 6.6 m/s 0.5 mm 10.5° 1004.9 hPa 7.7 m/s 4.3 mm 10.7° 1006.4 hPa 7.6 m/s 1.5 mm 11.3° 1008.3 hPa 5.4 m/s 0.0 mm 10.4° 1006.1 hPa 7.9 m/s
08:00 11.1° 1007.4 hPa 9.6 m/s 0.0 mm 10.9° 1005.5 hPa 11.0 m/s 4.3 mm 10.9° 1007.5 hPa 9.6 m/s 0.1 mm 12.0° 1008.5 hPa 8.9 m/s 0.0 mm 10.2° 1006.9 hPa 11.0 m/s
11:00 13.6° 1007.3 hPa 9.4 m/s 0.0 mm 12.7° 1005.6 hPa 10.3 m/s 4.4 mm 11.6° 1007.4 hPa 10.6 m/s 0.2 mm 14.2° 1008.9 hPa 9.0 m/s 0.0 mm 11.9° 1007.2 hPa 11.3 m/s
14:00 12.7° 1006.9 hPa 10.2 m/s 2.3 mm 13.6° 1005.2 hPa 10.6 m/s 5.0 mm 12.4° 1007.0 hPa 10.4 m/s 0.7 mm 13.9° 1008.1 hPa 10.6 m/s 0.0 mm 11.8° 1007.0 hPa 11.0 m/s
17:00 12.3° 1006.6 hPa 9.2 m/s 0.0 mm 12.7° 1005.2 hPa 10.9 m/s 5.5 mm 11.5° 1006.8 hPa 10.9 m/s 0.3 mm 13.8° 1007.3 hPa 8.7 m/s 0.0 mm 12.1° 1006.2 hPa 11.1 m/s
20:00 11.6° 1005.9 hPa 9.4 m/s 0.0 mm 11.9° 1004.0 hPa 10.1 m/s 9.3 mm 10.0° 1006.1 hPa 10.2 m/s 1.9 mm 12.9° 1006.5 hPa 8.7 m/s 0.0 mm 10.2° 1005.3 hPa 11.6 m/s
23:00 9.9° 1004.4 hPa 8.1 m/s 0.0 mm 9.9° 1003.1 hPa 8.2 m/s 9.6 mm 9.6° 1005.1 hPa 8.1 m/s 0.5 mm 9.3° 1004.6 hPa 9.4 m/s
 04:41     21:37    Daglengte: 16:56 Zaterdag 28 Mei
02:00 9.4° 1003.4 hPa 8.6 m/s 2.3 mm 9.9° 1001.9 hPa 9.0 m/s 9.8 mm 9.5° 1004.8 hPa 8.9 m/s 0.0 mm 9.6° 1003.5 hPa 9.3 m/s
05:00 9.2° 1002.9 hPa 7.1 m/s 1.6 mm 9.0° 1002.4 hPa 9.1 m/s 10.9 mm 10.1° 1004.7 hPa 6.6 m/s 0.0 mm 9.8° 1003.4 hPa 8.1 m/s
08:00 10.6° 1003.8 hPa 8.6 m/s 5.8 mm 11.2° 1003.2 hPa 9.3 m/s 11.4 mm 10.8° 1005.3 hPa 8.5 m/s 0.0 mm 11.2° 1004.8 hPa 8.2 m/s
11:00 12.5° 1005.2 hPa 8.2 m/s 4.7 mm 14.4° 1004.3 hPa 9.3 m/s 11.4 mm 12.8° 1006.7 hPa 8.1 m/s 0.0 mm 13.9° 1006.0 hPa 7.5 m/s
14:00 14.6° 1006.3 hPa 8.3 m/s 0.0 mm 16.4° 1005.4 hPa 8.6 m/s 11.4 mm 14.5° 1007.2 hPa 7.0 m/s 0.0 mm 15.7° 1007.2 hPa 7.7 m/s
17:00 15.2° 1006.7 hPa 7.4 m/s 0.0 mm 17.3° 1006.1 hPa 7.9 m/s 11.4 mm 15.2° 1007.5 hPa 5.6 m/s 0.0 mm 16.1° 1008.0 hPa 6.1 m/s
20:00 14.6° 1007.3 hPa 5.4 m/s 0.0 mm 16.5° 1006.2 hPa 6.5 m/s 11.4 mm 14.8° 1007.5 hPa 3.6 m/s 0.0 mm 14.4° 1008.3 hPa 2.5 m/s
23:00 12.1° 1007.6 hPa 4.1 m/s 0.0 mm 12.8° 1006.6 hPa 7.2 m/s 11.4 mm 12.3° 1007.6 hPa 3.0 m/s 0.0 mm 10.0° 1009.1 hPa 4.8 m/s
 04:40     21:38    Daglengte: 16:58 Zondag 29 Mei
02:00 11.5° 1007.2 hPa 4.2 m/s 0.0 mm 10.4° 1005.7 hPa 6.2 m/s 11.4 mm 11.8° 1007.5 hPa 3.7 m/s 0.0 mm 8.8° 1008.5 hPa 3.8 m/s
05:00 11.4° 1006.6 hPa 3.6 m/s 0.0 mm 10.2° 1004.6 hPa 5.2 m/s 11.4 mm 11.7° 1007.2 hPa 3.2 m/s 0.0 mm 8.1° 1008.0 hPa 4.4 m/s
08:00 13.0° 1006.7 hPa 3.2 m/s 0.0 mm 13.6° 1004.5 hPa 4.4 m/s 11.4 mm 12.8° 1007.2 hPa 2.9 m/s 0.0 mm 10.4° 1008.3 hPa 4.8 m/s
11:00 10.9° 1008.3 hPa 4.3 m/s 8.0 mm 10.9° 1008.3 hPa 4.3 m/s 8.0 mm
14:00 11.7° 1008.0 hPa 4.3 m/s 8.0 mm 11.7° 1008.0 hPa 4.3 m/s 8.0 mm
17:00 11.6° 1007.9 hPa 4.2 m/s 8.1 mm 11.6° 1007.9 hPa 4.2 m/s 8.1 mm
20:00 11.3° 1007.7 hPa 3.7 m/s 8.1 mm 11.3° 1007.7 hPa 3.7 m/s 8.1 mm
23:00 10.5° 1008.2 hPa 3.3 m/s 8.2 mm 10.5° 1008.2 hPa 3.3 m/s 8.2 mm
 04:39     21:39    Daglengte: 17:00 Maandag 30 Mei
02:00 10.3° 1008.1 hPa 3.4 m/s 8.2 mm 10.3° 1008.1 hPa 3.4 m/s 8.2 mm
05:00 10.2° 1008.3 hPa 2.9 m/s 8.2 mm 10.2° 1008.3 hPa 2.9 m/s 8.2 mm
08:00 11.5° 1009.4 hPa 4.2 m/s 8.3 mm 11.5° 1009.4 hPa 4.2 m/s 8.3 mm
11:00 13.3° 1010.0 hPa 4.7 m/s 8.4 mm 13.3° 1010.0 hPa 4.7 m/s 8.4 mm
14:00 13.3° 1010.8 hPa 4.8 m/s 9.0 mm 13.3° 1010.8 hPa 4.8 m/s 9.0 mm
17:00 13.1° 1011.2 hPa 3.1 m/s 10.0 mm 13.1° 1011.2 hPa 3.1 m/s 10.0 mm
20:00 12.0° 1011.6 hPa 3.1 m/s 10.8 mm 12.0° 1011.6 hPa 3.1 m/s 10.8 mm
23:00 9.1° 1012.6 hPa 2.6 m/s 11.0 mm 9.1° 1012.6 hPa 2.6 m/s 11.0 mm
 04:38     21:41    Daglengte: 17:03 Dinsdag 31 Mei
02:00 8.2° 1012.9 hPa 2.7 m/s 11.0 mm 8.2° 1012.9 hPa 2.7 m/s 11.0 mm
05:00 8.2° 1013.0 hPa 1.9 m/s 11.0 mm 8.2° 1013.0 hPa 1.9 m/s 11.0 mm
08:00 11.1° 1013.6 hPa 1.5 m/s 11.0 mm 11.1° 1013.6 hPa 1.5 m/s 11.0 mm
11:00 13.7° 1013.6 hPa 2.2 m/s 11.4 mm 13.7° 1013.6 hPa 2.2 m/s 11.4 mm
14:00 15.4° 1013.2 hPa 2.1 m/s 11.8 mm 15.4° 1013.2 hPa 2.1 m/s 11.8 mm
17:00 15.3° 1013.1 hPa 0.3 m/s 12.5 mm 15.3° 1013.1 hPa 0.3 m/s 12.5 mm
20:00 14.0° 1013.0 hPa 0.8 m/s 12.9 mm 14.0° 1013.0 hPa 0.8 m/s 12.9 mm
23:00 10.1° 1013.8 hPa 1.2 m/s 13.2 mm 10.1° 1013.8 hPa 1.2 m/s 13.2 mm
 04:37     21:42    Daglengte: 17:05 Woensdag 01 Jun
02:00 9.3° 1013.5 hPa 0.6 m/s 13.2 mm 9.3° 1013.5 hPa 0.6 m/s 13.2 mm
05:00 8.9° 1014.0 hPa 1.0 m/s 13.2 mm 8.9° 1014.0 hPa 1.0 m/s 13.2 mm
08:00 12.1° 1015.5 hPa 0.9 m/s 13.2 mm 12.1° 1015.5 hPa 0.9 m/s 13.2 mm
11:00 14.9° 1015.5 hPa 0.1 m/s 13.3 mm 14.9° 1015.5 hPa 0.1 m/s 13.3 mm
14:00 16.2° 1016.4 hPa 1.4 m/s 13.7 mm 16.3° 1016.4 hPa 1.4 m/s 13.7 mm
17:00 16.1° 1017.2 hPa 1.8 m/s 14.5 mm 16.1° 1017.2 hPa 1.8 m/s 14.5 mm
20:00 14.7° 1017.2 hPa 1.8 m/s 14.7 mm 14.7° 1017.2 hPa 1.8 m/s 14.7 mm
23:00 11.2° 1017.7 hPa 1.3 m/s 14.7 mm 11.2° 1017.7 hPa 1.3 m/s 14.7 mm
 04:36     21:43    Daglengte: 17:07 Donderdag 02 Jun
02:00 11.4° 1018.0 hPa 1.8 m/s 14.7 mm 11.4° 1018.0 hPa 1.8 m/s 14.7 mm
05:00 10.6° 1017.4 hPa 1.5 m/s 14.7 mm 10.6° 1017.4 hPa 1.5 m/s 14.7 mm
08:00 13.9° 1018.2 hPa 3.1 m/s 14.7 mm 13.9° 1018.2 hPa 3.1 m/s 14.7 mm
14:00 16.4° 1018.0 hPa 4.3 m/s 14.7 mm 16.4° 1018.0 hPa 4.3 m/s 14.7 mm
20:00 15.4° 1016.4 hPa 3.0 m/s 14.7 mm 15.4° 1016.4 hPa 3.0 m/s 14.7 mm
 04:35     21:45    Daglengte: 17:10 Vrijdag 03 Jun
02:00 14.0° 1016.1 hPa 4.2 m/s 14.7 mm 14.0° 1016.1 hPa 4.2 m/s 14.7 mm
08:00 15.2° 1016.1 hPa 4.0 m/s 14.8 mm 15.2° 1016.1 hPa 4.0 m/s 14.8 mm
14:00 18.3° 1017.2 hPa 4.6 m/s 14.9 mm 18.3° 1017.2 hPa 4.6 m/s 14.9 mm
20:00 16.2° 1017.3 hPa 3.2 m/s 14.9 mm 16.2° 1017.3 hPa 3.2 m/s 14.9 mm
 04:34     21:46    Daglengte: 17:12 Zaterdag 04 Jun
02:00 14.3° 1019.1 hPa 2.6 m/s 14.9 mm 14.3° 1019.1 hPa 2.6 m/s 14.9 mm
08:00 15.0° 1020.0 hPa 7.2 m/s 14.9 mm 15.0° 1020.0 hPa 7.2 m/s 14.9 mm
14:00 15.1° 1021.9 hPa 8.4 m/s 15.0 mm 15.1° 1021.9 hPa 8.4 m/s 15.0 mm
20:00 14.5° 1022.7 hPa 6.3 m/s 15.0 mm 14.5° 1022.7 hPa 6.3 m/s 15.0 mm
 04:33     21:47    Daglengte: 17:14 Zondag 05 Jun
02:00 11.2° 1015.8 hPa 0.7 m/s 0.3 mm
08:00 12.8° 1015.0 hPa 0.1 m/s 0.3 mm
14:00 15.4° 1014.8 hPa 0.6 m/s 0.9 mm
20:00 14.4° 1014.1 hPa 0.6 m/s 0.6 mm
 04:33     21:48    Daglengte: 17:15 Maandag 06 Jun
02:00 11.5° 1014.3 hPa 0.7 m/s 0.4 mm
08:00 13.1° 1014.2 hPa 0.5 m/s 0.2 mm
14:00 16.1° 1014.4 hPa 0.8 m/s 0.5 mm
20:00 14.9° 1013.6 hPa 0.6 m/s 0.6 mm
 04:32     21:49    Daglengte: 17:17 Dinsdag 07 Jun
02:00 11.9° 1013.3 hPa 1.0 m/s 0.8 mm
08:00 13.2° 1012.8 hPa 1.4 m/s 0.6 mm
14:00 16.0° 1012.5 hPa 1.5 m/s 0.5 mm
20:00 15.2° 1011.9 hPa 2.1 m/s 0.6 mm
 04:31     21:50    Daglengte: 17:19 Woensdag 08 Jun
02:00 12.0° 1011.8 hPa 1.4 m/s 0.3 mm
08:00 13.5° 1011.7 hPa 1.8 m/s 0.5 mm
14:00 16.5° 1011.9 hPa 2.4 m/s 0.6 mm
20:00 15.4° 1011.5 hPa 1.6 m/s 0.8 mm
 04:31     21:51    Daglengte: 17:20 Donderdag 09 Jun
02:00 12.2° 1011.7 hPa 1.3 m/s 0.6 mm
08:00 13.8° 1011.5 hPa 1.4 m/s 0.4 mm
14:00 16.3° 1011.9 hPa 2.2 m/s 0.7 mm
20:00 15.6° 1011.7 hPa 1.7 m/s 0.6 mm
 04:30     21:52    Daglengte: 17:22 Vrijdag 10 Jun
02:00 12.6° 1012.3 hPa 2.1 m/s 0.6 mm
FMI Hirlam - 7.5 km EWN WRFDA - 12 km DWD ICON - 7 km GFS - 25 km Basiskaart






























































Updatetijd (Europe/Amsterdam) Resolutie Lengte Stap
FMI Hirlam 07:00, 13:00, 19:00, 01:00 7.5 km 49h 1h
EWN WRFDA 04:15, 10:15, 16:15, 22:15 12 km 73h 1h
DWD ICON 05:45, 11:45, 17:45, 23:45 7 km 75h 1h
GFS 02:15, 08:15, 14:15, 20:15 25 km 237h 3h
30+ mm
25-30 mm
20-25 mm
15-20 mm
10-15 mm
6-10 mm
4-6 mm
2-4 mm
1-2 mm
0.5-1 mm
0.2-0.5 mm
0.1-0.2 mm
30+ mm
25-30 mm
20-25 mm
15-20 mm
10-15 mm
6-10 mm
4-6 mm
2-4 mm
1-2 mm
0.5-1 mm
0.2-0.5 mm
0.1-0.2 mm
Sneeuwval
Natte sneeuw
Hagel
Vorst
30+ mm
25-30 mm
20-25 mm
15-20 mm
10-15 mm
6-10 mm
4-6 mm
2-4 mm
1-2 mm
0.5-1 mm
0.2-0.5 mm
0.1-0.2 mm
Sneeuwval
Natte sneeuw
Hagel
Vorst
Onweer
50 mm
40 mm
30 mm
26 mm
22 mm
18 mm
14 mm
10 mm
9 mm
8 mm
7 mm
6 mm
5 mm
4.5 mm
4 mm
3.5 mm
3 mm
2.5 mm
2 mm
1.5 mm
1 mm
0.8 mm
0.6 mm
0.4 mm
0.2 mm
0.05 mm
35°
30°
25°
20°
15°
10°
-5°
-10°
-15°
-20°
-25°
-30°
-35°
33> m/s
29 m/s
25 m/s
21 m/s
17 m/s
14 m/s
11 m/s
8 m/s
5 m/s
3 m/s
0 m/s
2600 J/kg
2400 J/kg
2200 J/kg
2000 J/kg
1800 J/kg
1600 J/kg
1400 J/kg
1200 J/kg
1000 J/kg
800 J/kg
600 J/kg
400 J/kg
200 J/kg
70 dBZ
65 dBZ
60 dBZ
55 dBZ
50 dBZ
45 dBZ
40 dBZ
35 dBZ
30 dBZ
25 dBZ
20 dBZ
15 dBZ
10 dBZ
5 dBZ
-1 K
-2 K
-3 K
-4 K
-5 K
-6 K
-7 K
-8 K
-9 K
950 m²/s²
900 m²/s²
850 m²/s²
800 m²/s²
750 m²/s²
700 m²/s²
650 m²/s²
600 m²/s²
550 m²/s²
500 m²/s²
450 m²/s²
400 m²/s²
350 m²/s²
300 m²/s²
250 m²/s²
200 m²/s²
150 m²/s²
100 m²/s²
46 m/s
44 m/s
42 m/s
40 m/s
38 m/s
36 m/s
34 m/s
32 m/s
30 m/s
28 m/s
26 m/s
24 m/s
22 m/s
20 m/s
16 m/s
12 m/s
8 m/s
4 m/s
30 m/s
28 m/s
26 m/s
24 m/s
22 m/s
20 m/s
18 m/s
16 m/s
14 m/s
12 m/s
10 m/s
8 m/s
6 m/s
4 m/s
2 m/s
3.0
2.8
2.6
2.4